Theta_e
356 356 354 351 350 349 348 347 345 344 343 343 342 341 343 349 350 349 350 347 345 343 351 352 351 352 356 356 358 357 356 358 360 360 359 358 357 357 356 359 357 355 357 357 357 355 355 352 351 356 358 357 357 358 357 359 357 355 355 353 352 353 348 344 340 341 345 349 352 352 355 354 351 352 350 351 353 355 357 352 351 350 351 352 353
356 357 357 354 351 350 349 348 346 345 343 343 343 341 341 344 348 348 348 348 346 343 348 353 353 352 353 354 354 356 357 356 359 359 358 357 357 359 357 357 356 355 356 355 357 359 357 353 353 355 357 355 357 358 357 354 356 355 355 357 355 355 352 347 344 342 343 347 350 355 355 357 352 352 350 350 351 352 353 353 356 354 354 354 353
357 358 358 356 354 352 351 349 348 345 343 342 343 342 342 342 345 346 346 348 349 346 343 350 354 353 352 353 352 353 355 356 357 358 358 357 356 357 358 358 356 355 356 356 356 357 356 356 355 356 360 355 355 355 356 353 353 353 354 355 354 354 356 352 348 346 346 348 351 353 351 351 350 351 352 354 354 355 353 353 355 358 359 357 357
358 358 358 358 356 354 353 351 349 347 345 343 343 343 343 342 345 345 346 346 348 349 345 344 351 354 353 353 352 352 354 356 356 356 357 357 357 356 356 355 357 356 356 357 357 357 356 354 354 356 355 354 355 354 354 354 353 353 354 356 354 355 355 357 353 350 349 347 348 352 353 352 353 354 356 358 357 357 357 356 356 357 357 359 358
358 358 359 358 357 356 354 353 351 349 347 345 345 345 344 344 344 345 346 345 347 349 349 345 345 352 354 354 354 353 354 355 355 355 357 358 358 357 356 355 355 356 357 357 363 357 356 355 354 353 353 352 352 354 354 352 353 352 352 352 355 356 358 358 358 355 352 350 350 351 354 354 355 357 358 357 358 358 357 357 358 358 357 359 361
359 358 358 358 358 356 355 354 352 350 349 348 347 347 347 346 345 346 346 346 346 348 349 348 345 348 353 354 356 355 355 356 355 355 355 357 358 358 357 357 356 354 356 357 359 358 357 356 355 354 352 352 352 353 353 353 353 353 352 352 353 353 353 352 352 350 349 348 347 347 349 353 353 355 357 358 357 357 355 355 355 356 356 356 358
359 358 358 358 358 357 356 355 353 352 351 350 349 348 347 348 347 346 347 347 346 346 347 349 349 347 349 353 356 357 355 355 355 355 354 356 357 357 357 356 357 356 355 355 358 359 358 357 356 355 353 352 352 352 353 353 353 353 354 353 353 355 354 353 353 352 351 349 350 352 352 354 354 354 356 356 357 356 354 354 350 352 354 353 354
358 358 358 358 358 357 357 356 355 353 352 351 351 350 348 348 348 348 348 346 346 346 347 348 350 350 349 350 353 357 357 355 355 355 354 354 356 356 356 356 356 356 356 356 356 357 358 358 357 356 355 354 353 353 353 352 355 354 355 356 356 354 353 352 353 353 352 352 351 351 351 352 351 355 357 353 352 351 353 352 351 347 351 354 356
357 358 358 358 357 357 357 357 357 355 353 352 352 351 350 348 348 348 348 347 347 346 347 348 350 352 352 351 352 354 357 356 356 355 354 353 354 355 355 356 356 355 355 355 356 356 357 357 357 356 357 365 362 360 359 360 355 354 354 355 355 355 354 354 353 352 352 352 353 353 351 352 352 351 351 350 349 350 351 351 350 346 348 348 350
356 357 357 358 358 357 357 357 356 356 354 353 352 352 350 349 348 349 349 347 346 347 346 348 349 351 353 354 353 354 355 357 353 344 347 355 354 355 355 355 355 356 355 354 354 355 356 357 358 368 365 363 355 353 351 356 362 358 355 356 355 354 354 353 353 353 352 351 351 352 351 351 352 352 352 353 354 351 349 345 343 345 346 347 345
355 356 357 358 358 357 356 356 355 354 354 354 352 351 350 349 348 348 350 349 348 348 347 346 348 350 352 355 355 355 355 356 343 336 338 344 354 355 354 353 354 354 355 354 353 354 355 355 355 363 370 370 359 349 348 346 348 352 355 362 364 357 353 353 353 354 353 353 353 352 352 351 352 353 352 353 352 348 346 343 344 345 344 341 341
354 354 356 358 358 357 356 355 354 353 354 353 352 351 350 349 347 347 350 350 350 350 349 346 348 350 351 354 356 356 356 348 336 334 336 337 346 356 354 353 354 353 353 354 354 354 354 355 356 356 354 355 357 356 350 346 343 345 346 348 354 359 359 358 355 354 354 353 352 353 352 352 352 351 352 353 351 349 344 344 344 344 345 340 338
352 353 355 356 357 357 356 355 354 353 353 354 353 352 350 349 348 347 348 351 351 350 349 348 347 351 352 352 355 357 357 343 333 332 333 334 336 350 355 352 353 353 352 353 354 354 353 353 353 354 355 365 365 358 354 352 344 340 342 345 348 346 340 342 348 358 356 353 353 351 352 352 351 352 355 352 351 346 345 344 345 343 342 341 342
349 349 352 352 357 357 356 355 354 354 355 355 354 352 351 350 349 349 349 352 351 351 351 350 348 350 353 353 354 357 358 343 330 328 330 331 333 341 355 353 351 352 353 353 353 353 353 352 351 351 350 352 353 357 356 353 351 350 347 346 347 352 348 340 337 337 344 349 346 345 346 346 346 347 350 350 351 350 346 345 345 343 342 345 346
347 347 347 345 348 356 356 355 355 355 355 355 354 353 352 351 351 350 350 350 352 351 351 350 350 350 352 354 354 355 358 337 327 325 326 327 331 337 355 355 352 350 351 353 354 353 353 354 352 351 350 349 351 354 355 354 352 351 349 348 349 350 352 353 353 352 349 347 346 347 348 347 348 348 349 350 351 352 352 349 347 347 346 345 344
347 347 347 347 348 354 357 356 355 355 355 355 355 354 353 352 351 351 351 350 352 353 353 352 351 351 351 354 354 353 357 331 326 324 324 325 329 345 354 355 353 352 350 351 353 354 353 354 353 352 351 350 353 349 356 356 354 353 352 351 351 352 354 356 345 347 356 355 352 350 350 351 345 351 349 352 351 351 352 350 347 345 342 341 344
347 347 347 348 350 356 358 356 356 356 356 355 355 355 354 352 352 353 351 350 350 352 352 352 352 352 351 351 353 354 355 334 325 322 322 323 328 348 353 355 354 353 353 353 354 354 354 354 353 353 353 352 349 337 339 359 357 357 356 355 355 355 355 359 344 335 335 333 333 336 336 337 335 332 328 337 348 349 347 342 341 341 341 342 341
348 348 348 348 349 356 358 357 356 356 356 355 355 356 356 354 353 354 351 350 349 351 353 352 353 353 351 351 351 352 355 337 321 321 320 320 332 349 352 354 354 353 353 353 356 359 361 366 365 354 354 354 343 335 334 347 354 356 358 358 358 359 360 363 365 360 338 332 331 332 332 333 333 331 328 330 333 345 345 342 342 344 341 340 337
348 348 349 350 350 355 359 358 357 356 356 356 356 356 356 355 354 354 353 351 350 351 353 352 352 353 353 352 350 350 351 341 317 320 319 318 332 351 353 353 353 353 353 352 352 353 354 364 370 362 357 352 337 333 332 343 351 352 354 355 355 356 359 361 362 360 355 352 351 350 346 342 342 341 342 334 336 347 346 345 344 344 341 340 337
349 350 350 350 352 355 359 359 358 357 357 357 357 357 358 357 355 354 353 352 351 351 353 353 352 353 354 354 354 352 351 351 327 316 316 316 323 351 353 353 352 352 353 352 352 352 352 353 352 337 333 336 333 328 328 329 351 353 354 354 353 353 357 357 356 356 355 355 354 352 351 350 347 347 344 341 343 347 344 345 346 345 343 339 337
350 350 351 351 353 357 360 360 358 358 358 358 358 358 358 357 356 354 353 353 352 352 352 353 353 353 354 355 355 355 354 352 335 313 313 314 317 333 354 354 354 353 353 352 352 352 352 352 352 340 328 324 323 322 322 322 336 356 356 355 355 355 355 356 357 369 359 356 353 349 348 346 347 346 345 345 346 347 345 345 347 347 344 340 334
350 350 350 351 353 357 360 361 360 360 360 360 358 358 359 359 358 356 354 353 351 351 352 352 353 354 355 356 356 356 355 347 346 314 314 313 315 321 349 355 354 354 353 353 353 352 353 354 354 345 330 325 321 318 317 320 324 349 357 338 339 340 356 358 358 355 353 353 351 348 346 344 344 344 344 345 346 349 348 346 346 346 346 344 336
347 349 349 352 356 358 361 361 360 361 361 361 359 358 359 359 358 357 355 353 351 351 352 353 353 354 355 356 356 357 357 354 336 327 313 312 313 316 328 343 337 355 354 352 353 354 355 355 357 347 329 322 319 317 316 317 323 337 331 330 333 333 354 357 354 353 350 350 349 348 345 345 343 342 342 342 346 350 349 348 346 342 340 342 336
345 347 350 350 354 360 362 362 362 362 362 361 361 359 359 360 359 358 356 353 351 350 351 353 354 354 355 355 357 357 358 359 338 327 324 312 312 314 318 326 333 350 356 355 355 356 355 356 352 334 324 318 317 318 319 321 333 324 322 327 330 338 351 351 348 350 347 345 346 347 347 344 344 343 343 343 347 346 346 346 343 342 340 336 333
345 345 349 356 355 358 362 363 362 362 363 363 361 360 360 361 359 359 357 354 352 350 350 352 353 353 354 355 356 357 358 359 356 334 322 315 313 313 316 320 323 328 351 356 356 356 344 336 333 328 324 319 319 320 321 321 320 324 323 326 345 346 346 347 348 346 345 346 346 347 348 347 348 347 347 348 345 342 341 341 343 342 340 338 339
347 347 347 353 358 361 362 362 363 363 363 364 363 362 361 361 360 360 358 356 354 352 351 351 351 352 352 354 355 357 357 359 358 348 329 322 317 314 316 318 323 325 340 353 346 339 330 330 328 327 325 326 331 334 337 337 325 325 328 333 343 345 344 345 345 345 347 347 345 346 346 349 343 343 344 344 343 343 342 339 336 337 337 337 333
349 352 352 353 357 361 362 362 362 363 363 364 365 364 363 362 361 359 359 358 355 353 352 351 351 351 351 352 355 356 357 358 359 352 341 335 331 326 320 323 321 324 332 341 338 335 323 331 332 327 331 326 332 334 334 336 333 332 334 338 341 344 345 346 347 347 345 345 344 345 348 342 340 342 342 342 341 341 340 338 336 336 335 333 330
350 353 356 357 357 360 361 359 360 362 362 363 364 364 363 363 362 359 359 359 357 355 354 352 351 351 351 352 353 354 355 356 359 354 345 341 337 334 330 330 330 332 337 342 346 346 344 333 328 338 336 336 342 342 340 337 336 335 337 338 341 343 346 351 352 345 346 346 347 346 339 340 339 338 338 338 339 339 340 339 338 334 334 332 328
352 353 356 357 358 359 361 360 361 361 361 361 363 365 364 364 362 361 364 364 362 359 357 355 354 354 353 352 351 351 353 354 357 340 347 331 337 339 335 333 334 335 334 331 347 349 347 347 347 346 344 345 345 345 342 339 338 338 340 340 342 344 346 347 348 348 348 349 347 340 338 338 336 337 333 333 335 336 336 335 335 335 334 332 329
354 355 357 357 358 359 360 361 361 360 361 361 357 335 316 304 320 358 362 351 341 337 335 355 357 356 355 354 354 352 352 355 336 326 322 318 317 321 323 320 321 333 329 322 338 348 348 346 347 347 346 346 347 347 346 345 343 342 343 337 343 346 347 348 349 350 351 342 338 338 337 336 334 333 334 331 334 335 333 330 332 334 331 330 329
355 356 357 357 355 358 360 360 361 360 360 361 352 344 338 332 304 298 307 332 332 322 319 325 330 336 352 355 350 336 336 334 321 316 315 313 313 313 313 313 313 316 317 326 337 344 347 346 346 346 345 347 346 347 347 347 346 345 345 345 347 346 345 349 350 346 337 336 336 336 335 335 334 333 332 333 333 334 330 331 332 332 329 327 326
355 356 357 357 354 355 360 360 359 359 359 357 349 345 345 342 335 309 299 302 311 319 319 319 320 321 327 338 349 345 329 321 315 311 312 312 312 311 311 310 310 311 310 319 338 341 345 347 347 347 347 346 346 346 347 349 348 349 348 347 347 348 348 347 343 339 335 335 334 334 333 335 336 333 332 332 329 330 328 327 330 329 328 328 328
350 351 352 353 351 352 353 352 352 356 358 354 350 349 349 347 345 337 324 303 298 298 301 302 304 310 320 322 319 326 327 319 311 310 310 310 310 310 310 308 308 307 310 330 341 341 343 346 347 348 348 347 347 348 348 349 350 350 351 349 347 338 340 336 334 335 333 333 334 334 333 333 335 331 328 329 328 329 328 326 327 330 328 326 327
345 342 340 342 343 341 340 339 338 337 339 344 350 351 351 350 348 341 337 336 335 319 305 299 299 303 298 301 314 320 316 315 309 307 307 309 309 309 308 312 303 305 320 339 341 342 343 344 346 348 349 349 349 349 348 349 349 350 350 347 338 337 337 335 334 332 332 332 334 332 332 333 332 331 328 328 327 329 329 327 328 325 325 321 321
346 355 355 350 342 344 343 343 343 341 341 341 344 350 351 351 346 343 343 342 341 339 336 327 305 297 310 306 297 301 305 306 304 304 306 306 306 304 309 327 328 326 329 338 342 344 344 344 345 346 349 349 349 349 349 348 348 345 341 334 335 335 335 333 332 331 330 330 329 330 330 330 329 328 327 325 325 326 325 326 326 323 324 322 321
344 345 348 350 346 346 346 344 343 343 343 344 346 349 348 350 346 347 344 345 345 341 334 328 322 308 301 297 295 296 297 299 301 302 302 303 304 314 338 338 337 334 334 337 341 343 345 346 346 347 348 347 345 343 343 341 338 337 335 334 333 333 333 332 331 332 331 330 328 327 326 328 326 327 326 325 326 326 328 326 324 324 324 321 319
342 344 339 342 344 343 344 343 342 343 340 342 342 344 344 345 346 347 348 348 346 341 334 327 328 329 323 320 308 299 297 299 299 300 300 302 307 332 346 343 341 337 336 339 342 344 347 348 347 345 343 340 337 337 336 334 333 333 330 334 334 334 333 333 331 330 331 330 327 328 328 327 326 329 329 326 326 326 326 327 325 323 322 322 321
335 334 343 345 345 344 343 343 343 338 340 341 343 344 344 345 343 344 347 347 341 338 336 337 337 338 332 326 329 323 313 306 309 309 309 312 327 344 348 347 346 339 337 341 343 346 343 340 340 340 338 336 334 334 332 332 333 333 333 332 331 331 328 329 328 329 331 329 328 327 328 328 328 327 324 324 325 323 323 322 322 321 321 321 320
333 327 325 330 337 343 342 342 343 343 342 343 343 344 343 344 343 342 343 342 341 341 342 342 336 330 328 328 327 327 333 339 338 336 337 338 337 338 340 341 341 339 339 338 335 335 335 334 333 334 334 333 332 332 332 332 332 332 331 331 329 328 328 328 330 330 330 330 329 330 329 328 328 330 328 326 326 323 322 322 321 320 319 321 323
331 331 328 328 334 334 337 340 341 341 342 342 342 342 340 341 341 340 342 343 340 335 331 330 329 330 330 331 331 334 340 338 338 337 333 331 332 333 334 333 333 332 331 331 331 331 330 330 330 330 331 332 332 331 331 331 330 331 332 331 329 329 330 330 330 329 330 332 329 328 329 328 329 328 327 324 322 323 322 323 322 322 321 321 320
329 330 331 326 327 333 337 337 335 336 338 340 341 341 341 341 338 334 332 329 327 326 325 325 323 321 319 316 310 319 334 331 330 330 330 329 329 329 329 329 329 328 328 328 328 328 329 329 328 328 328 329 329 329 330 331 330 329 328 327 327 326 327 327 327 328 330 332 329 326 329 327 327 325 324 323 321 324 324 323 321 319 321 321 320
327 326 327 328 327 329 330 330 331 333 334 334 334 332 331 331 331 329 327 325 324 323 322 321 320 318 311 308 308 311 325 327 327 326 326 326 326 325 326 326 327 326 326 325 324 321 319 318 317 317 316 316 316 317 319 320 320 321 320 320 320 320 320 321 323 326 326 324 324 323 323 324 324 323 323 322 324 324 323 322 321 320 320 321 320
325 324 324 327 327 327 327 327 328 327 327 327 328 330 329 327 326 326 324 324 324 323 322 321 321 320 317 310 313 314 323 324 324 323 323 323 323 323 323 323 323 322 321 320 319 317 315 313 311 310 309 308 308 309 309 312 315 315 314 315 315 315 315 316 318 319 320 321 320 320 320 321 320 320 319 320 320 319 320 321 321 321 319 319 320
323 323 322 322 322 323 325 325 325 325 325 326 326 325 324 324 324 323 323 322 322 321 321 321 321 320 319 316 314 316 318 318 318 318 317 317 316 316 316 317 317 317 317 316 316 314 311 309 307 306 305 304 304 304 305 305 307 308 309 310 310 310 310 311 313 314 316 318 318 318 319 319 320 320 319 319 320 320 320 320 320 319 319 319 319
320 320 319 319 319 318 318 320 321 321 321 321 321 321 322 322 321 321 321 320 320 320 319 319 319 318 317 317 317 317 317 316 316 315 314 314 313 313 313 313 312 311 310 309 309 308 307 305 304 302 301 301 301 300 300 300 300 301 302 304 304 304 305 307 310 313 314 316 316 317 317 317 318 318 319 319 320 320 319 318 317 318 316 316 317
317 318 317 316 316 317 316 316 317 316 316 316 316 316 316 316 316 317 317 317 316 315 315 315 315 316 316 316 316 316 315 314 313 312 312 311 311 310 310 309 308 307 306 305 304 303 302 301 300 299 298 297 297 296 296 297 297 297 297 298 298 299 300 303 306 308 311 313 314 315 316 316 316 319 323 319 318 317 317 317 317 316 316 315 315
314 315 315 314 314 314 315 315 315 314 314 314 314 314 313 313 313 312 312 311 310 310 310 310 309 309 309 308 308 308 309 309 309 309 308 308 308 307 307 306 305 304 303 302 301 300 299 298 298 297 297 296 295 295 295 295 295 295 296 295 295 296 296 301 300 300 302 305 309 311 313 314 316 317 317 317 316 316 316 316 315 315 315 314 314
312 312 312 313 312 311 312 312 312 313 311 311 311 311 311 311 310 310 310 310 309 308 307 307 306 306 307 306 306 306 306 306 306 307 306 306 306 305 305 303 303 301 301 300 299 298 296 295 295 295 295 295 295 295 294 294 294 293 293 293 294 294 295 297 298 297 298 302 306 308 311 315 316 316 316 317 315 315 315 314 313 312 313 312 312
310 310 309 309 309 309 309 309 309 309 309 309 309 308 308 307 307 307 308 307 307 307 306 305 305 305 305 305 306 305 306 306 305 305 305 305 304 304 303 302 302 301 299 298 297 297 296 296 296 295 295 295 295 294 294 294 293 293 292 292 292 293 292 294 295 295 296 304 308 309 312 315 315 315 315 314 313 311 310 309 309 309 310 311 311
307 307 307 307 307 307 308 307 307 306 307 307 306 306 306 305 305 305 305 305 304 305 304 305 304 304 304 304 304 304 304 303 303 303 303 303 303 302 302 301 300 300 299 298 298 298 298 297 297 297 296 296 295 295 294 294 292 291 291 290 291 290 290 292 294 294 296 300 305 308 308 307 306 303 302 302 302 302 302 302 303 304 306 308 310
307 306 306 305 305 306 305 304 304 304 304 304 303 303 303 302 303 303 303 302 302 302 303 302 302 302 302 302 303 302 302 301 301 301 301 300 300 300 299 299 298 298 297 297 297 297 297 297 296 297 297 297 296 295 294 293 292 291 291 290 290 290 290 290 292 291 293 299 307 307 305 305 305 303 302 301 301 301 303 303 302 301 303 306 307
Wind_Speed
18 16 15 15 15 16 16 15 15 14 14 13 13 12 11 11 11 11 9 10 9 7 8 10 10 10 9 8 9 9 9 8 8 8 8 7 6 6 6 7 6 6 5 5 4 5 5 5 5 4 3 2 3 3 2 4 3 4 4 4 4 4 5 4 4 6 6 3 4 4 4 3 3 3 5 6 6 6 6 6 6 5 4 4 5
18 17 16 16 17 16 17 15 15 14 15 14 14 13 12 11 11 10 10 10 11 11 8 9 9 11 10 9 8 10 9 9 8 8 8 8 7 6 6 7 7 7 5 6 5 4 4 5 6 5 4 5 3 3 4 3 3 4 4 5 6 6 5 5 6 5 8 4 5 5 5 3 5 3 4 5 6 5 7 6 3 4 4 6 6
18 16 16 16 17 16 16 15 15 16 16 14 15 15 14 13 11 12 11 10 10 11 11 9 10 10 10 10 9 8 9 10 8 8 9 9 9 8 7 6 8 7 7 7 7 5 4 4 5 5 4 5 5 5 3 4 4 5 6 5 5 6 6 6 5 6 7 7 5 5 3 3 4 6 5 5 6 6 7 7 6 3 3 5 6
17 17 17 18 18 16 16 16 17 17 17 15 17 16 15 14 12 12 12 11 10 10 12 11 9 11 11 11 11 9 9 10 10 10 10 10 10 9 8 7 7 8 8 7 7 6 6 5 5 5 5 5 5 6 6 5 5 3 4 5 6 6 5 5 6 6 5 6 4 4 4 4 5 5 5 6 7 7 7 7 5 5 5 5 6
17 17 17 18 17 17 17 17 17 18 18 16 18 17 16 15 13 14 13 12 12 11 11 11 11 11 12 12 12 12 11 11 11 11 10 10 10 10 9 8 7 8 8 8 7 7 6 6 7 5 4 6 5 6 6 6 6 6 5 4 6 6 6 6 6 6 5 6 5 4 4 3 4 5 4 6 8 7 5 5 6 6 5 6 5
17 17 16 17 17 18 17 17 18 19 19 18 18 18 16 15 14 14 13 14 13 12 12 11 12 12 11 12 12 13 12 11 12 12 11 10 10 10 10 9 9 8 8 8 8 7 7 7 7 6 6 6 6 6 6 7 6 6 6 6 5 4 5 5 4 4 5 6 6 7 4 6 5 6 5 5 8 8 6 4 3 3 3 5 4
16 17 16 18 17 18 17 18 17 18 18 17 16 16 16 16 16 15 14 14 14 13 13 13 11 12 12 11 12 12 12 11 10 11 11 10 10 10 10 10 9 8 8 9 8 8 8 8 7 7 7 7 7 6 6 6 6 6 7 7 6 5 5 5 5 5 5 5 5 6 7 5 5 8 7 5 7 5 6 6 3 2 1 1 3
15 16 16 16 17 18 17 17 17 17 17 16 16 16 16 16 15 15 14 15 15 14 13 14 12 12 13 12 12 10 11 11 10 10 11 11 10 11 11 11 10 9 7 9 9 9 9 8 8 8 8 8 7 7 7 7 5 6 7 6 6 6 6 6 5 5 6 5 6 7 6 6 5 6 6 3 5 5 4 4 6 0 0 2 2
15 16 16 16 17 17 15 15 15 15 16 16 15 15 16 15 15 14 14 15 14 15 13 14 13 13 13 13 12 11 10 10 10 11 11 11 10 11 11 11 11 10 9 8 8 9 9 9 8 8 7 10 12 10 9 8 6 7 6 6 6 7 6 6 6 6 6 6 7 5 5 7 7 7 9 7 6 8 4 1 1 2 2 5 3
14 15 16 16 16 15 15 14 14 15 15 16 16 15 15 15 15 15 15 15 14 14 13 13 14 14 14 13 12 11 10 9 12 17 15 11 11 9 9 10 10 10 10 9 8 8 9 8 9 13 14 14 14 14 14 13 12 9 8 7 7 7 7 7 7 7 7 7 8 7 8 9 8 7 8 9 5 2 1 1 2 3 4 6 2
14 14 15 14 14 13 13 14 14 15 15 15 15 15 15 14 14 14 14 15 15 13 13 13 14 14 14 13 13 12 11 11 17 16 17 17 12 9 9 10 9 9 9 10 10 10 9 9 7 10 13 15 14 17 16 16 16 15 14 12 10 9 7 8 7 6 7 7 7 6 7 9 9 8 8 9 6 3 1 2 0 3 3 4 6
14 13 12 10 12 14 14 14 14 15 15 15 16 16 15 15 15 14 13 15 13 13 14 13 12 14 13 14 14 13 12 14 18 18 18 18 15 11 8 8 9 9 9 10 10 9 9 9 9 8 7 8 10 11 15 17 18 18 17 15 14 13 12 9 8 6 6 7 7 8 7 8 9 6 8 6 6 2 1 2 0 3 5 4 2
12 12 12 11 12 13 13 14 15 14 15 15 15 14 15 15 15 14 15 14 13 14 14 14 11 12 14 14 14 13 12 16 18 19 19 19 19 15 9 8 9 10 10 10 9 9 8 8 8 8 9 14 10 9 10 12 15 18 18 17 15 14 13 13 10 8 6 6 7 8 8 6 7 9 7 5 1 3 1 2 1 2 2 4 4
8 8 8 8 9 13 13 15 15 15 14 14 13 14 15 15 15 15 14 13 14 14 14 15 12 10 12 14 13 12 13 15 19 19 19 20 19 16 11 11 8 8 10 10 9 9 9 9 9 8 7 8 8 8 8 10 10 10 10 9 8 12 14 14 15 13 8 7 7 10 10 5 10 11 10 5 5 6 3 4 2 2 3 5 3
11 10 6 3 11 12 15 15 16 14 14 13 13 14 16 15 14 14 13 14 14 15 15 14 13 11 10 13 12 12 12 17 19 20 20 21 20 17 12 9 8 7 8 9 10 10 9 9 9 10 9 7 6 7 8 9 9 9 9 9 10 10 10 10 10 9 8 8 9 11 12 9 11 12 11 5 4 4 3 2 3 3 3 2 2
15 14 14 16 16 15 16 16 16 15 14 14 14 15 16 16 15 13 12 12 12 12 12 13 13 13 11 11 13 13 12 19 20 21 21 21 21 13 11 10 9 8 8 8 9 10 10 10 9 10 10 9 12 13 10 8 7 8 9 9 8 8 9 11 13 12 11 9 9 11 11 12 14 12 4 2 2 4 4 3 2 1 1 3 5
16 17 18 17 16 16 17 17 17 16 15 15 16 16 16 16 14 11 12 12 12 12 13 13 12 13 13 10 11 12 11 16 21 22 21 22 16 11 11 10 10 10 9 8 9 9 10 11 11 10 10 10 13 15 14 11 7 8 9 9 8 8 10 9 12 16 17 17 16 15 14 16 13 4 6 6 6 5 5 2 3 2 1 4 3
16 17 17 14 13 14 17 18 18 17 16 17 17 16 15 13 14 12 13 13 13 13 12 12 12 13 14 14 12 10 11 13 22 21 22 21 18 13 11 11 11 11 10 8 6 6 7 14 13 11 11 11 14 15 15 11 8 8 8 8 8 9 10 8 7 9 16 18 17 16 13 11 7 9 8 9 10 7 6 6 4 4 5 4 4
16 18 18 17 14 13 14 16 17 17 17 18 16 16 15 15 13 12 12 11 11 10 11 11 11 11 13 14 16 15 10 10 19 22 23 22 19 12 12 11 11 11 11 10 9 7 7 7 12 11 11 12 14 15 16 12 9 9 8 8 9 10 11 7 9 9 6 4 6 6 7 11 8 7 7 11 11 8 5 5 4 5 6 4 4
17 17 15 13 13 13 13 15 16 17 18 17 15 15 12 11 13 13 12 11 10 10 11 12 13 11 11 12 12 13 13 8 13 20 20 21 23 14 11 11 12 13 12 11 9 9 10 9 10 14 13 12 14 16 17 17 12 10 8 9 10 13 10 7 7 7 6 7 6 4 6 5 4 5 6 6 6 5 5 4 5 6 4 2 2
14 15 15 16 15 14 14 16 18 17 16 15 14 13 12 13 13 13 14 12 11 10 12 12 12 12 11 11 11 11 12 10 11 19 19 20 22 18 11 13 13 12 11 10 9 10 10 11 10 14 16 15 15 16 17 18 16 11 10 11 13 13 7 7 9 11 9 7 5 1 3 3 3 3 4 5 5 4 4 4 4 3 3 4 4
16 16 15 16 16 15 15 15 16 15 14 13 13 14 13 13 13 14 12 13 14 12 10 11 11 11 11 11 11 10 12 16 9 16 20 21 22 23 13 13 14 12 11 10 10 9 11 11 10 14 18 18 18 16 16 15 17 11 12 16 16 11 8 7 6 6 6 6 3 0 3 1 1 1 1 2 3 3 5 4 3 2 4 5 5
12 15 16 16 15 16 15 16 15 13 13 15 15 15 13 13 13 13 13 13 14 13 12 11 11 11 10 10 10 10 10 12 16 14 18 21 23 22 22 16 18 13 11 11 11 12 11 10 10 15 16 18 17 17 16 16 11 12 17 15 13 13 10 6 6 6 5 5 5 3 1 3 1 0 1 2 3 2 2 3 2 1 2 1 2
11 13 14 16 15 14 14 16 16 14 15 14 14 14 13 13 13 12 13 13 13 13 11 10 11 11 12 11 10 10 10 10 14 19 18 22 22 24 24 21 19 14 12 11 11 11 9 9 10 14 16 17 18 18 18 16 13 17 17 15 12 10 7 6 5 5 3 4 5 6 3 1 4 3 2 2 2 1 2 3 2 2 2 1 3
14 14 14 14 15 15 14 15 16 15 14 15 14 14 14 14 13 13 13 13 13 13 12 11 12 11 11 11 11 11 11 11 11 15 21 22 23 23 24 23 19 20 15 11 10 10 10 12 13 15 15 16 18 19 17 18 20 18 17 14 10 5 5 5 5 2 4 5 5 5 5 2 1 3 4 4 3 3 3 2 2 2 2 4 5
15 17 17 15 14 15 16 16 16 16 15 14 15 14 14 14 13 12 12 12 13 13 12 12 12 11 11 11 11 11 11 11 11 11 13 17 18 22 24 24 22 20 19 14 13 11 12 14 12 9 10 11 10 8 8 10 15 17 14 10 6 5 5 5 3 4 6 5 5 5 4 3 1 3 4 5 6 4 4 4 2 1 3 4 5
14 14 16 16 15 15 17 14 14 15 15 13 13 12 12 13 13 12 12 13 13 13 12 12 12 12 12 11 11 11 11 11 10 10 10 10 10 13 15 16 19 14 8 5 3 5 5 5 7 7 5 8 8 7 8 8 6 6 6 6 7 7 6 6 7 7 5 3 3 3 1 1 2 4 4 4 3 2 3 3 4 4 5 6 6
15 15 16 15 14 15 16 19 18 13 14 13 12 12 12 13 13 13 14 15 14 14 13 13 14 14 13 11 10 10 11 11 11 11 11 11 11 10 11 11 11 11 11 8 6 5 5 5 6 5 5 4 4 4 4 4 5 6 6 6 6 5 5 6 3 2 3 3 3 2 4 4 4 4 4 5 4 2 1 1 1 2 4 4 3
15 16 16 15 15 15 15 14 15 14 13 12 11 12 13 14 12 11 12 11 13 14 14 14 14 13 13 12 13 12 11 12 13 14 15 18 16 12 10 11 11 10 15 16 7 4 5 5 4 5 5 5 5 5 5 5 4 5 5 5 5 5 5 5 6 6 6 6 6 6 7 7 7 6 6 3 2 3 3 3 1 3 2 2 1
14 14 14 15 15 14 13 13 13 13 13 12 9 4 11 10 2 9 11 15 17 17 13 12 13 12 13 13 14 15 14 15 15 19 20 20 20 21 19 18 18 16 16 18 13 8 7 6 7 7 6 6 6 6 6 6 5 6 6 6 6 6 7 7 7 7 5 5 7 8 8 8 7 6 6 5 4 4 6 5 3 3 2 0 0
11 12 14 13 14 13 12 12 12 11 11 12 8 8 5 3 10 10 8 6 16 18 17 17 15 15 13 12 13 18 16 10 13 18 19 19 20 20 20 20 21 21 17 12 8 9 9 8 8 7 7 6 6 7 6 6 6 6 7 7 7 8 8 8 9 7 9 10 9 8 6 7 7 6 5 4 4 4 2 1 4 4 3 2 1
7 10 11 10 12 12 11 11 11 10 9 8 9 9 9 9 2 10 11 9 4 9 10 9 11 16 19 15 9 6 6 11 16 16 19 20 21 21 20 20 19 19 17 20 12 11 10 10 10 9 8 8 8 6 7 7 7 7 7 8 9 9 8 10 11 9 8 7 5 4 5 5 5 5 5 5 5 4 4 3 3 4 2 2 3
5 5 4 5 5 4 5 5 3 1 6 8 9 10 11 11 10 5 6 11 10 8 8 7 4 1 4 6 13 16 13 11 16 18 19 21 21 20 20 19 19 16 15 10 10 11 10 10 10 10 9 9 8 7 7 8 8 9 9 10 8 8 9 3 7 9 9 9 8 6 4 4 4 5 4 2 3 4 4 5 4 4 4 4 2
5 4 2 3 9 11 11 11 10 6 3 10 7 7 10 10 9 9 8 5 5 7 11 12 10 7 8 6 1 8 14 17 17 17 17 18 20 19 15 8 9 15 18 13 11 10 9 10 9 9 9 8 8 7 8 8 9 8 8 6 8 8 8 4 6 9 9 9 7 7 7 7 5 4 4 6 7 6 6 6 5 5 5 5 4
1 5 9 5 2 2 5 9 12 12 12 12 7 9 8 10 10 11 11 11 9 7 5 5 9 10 5 5 7 7 6 5 9 14 16 16 15 16 16 10 7 4 4 5 7 7 8 9 9 8 7 7 8 9 9 8 7 7 6 8 7 6 6 7 7 7 8 7 7 7 7 6 4 4 4 5 6 5 6 6 6 6 6 5 5
5 3 5 6 5 4 2 1 5 7 10 9 9 6 6 7 11 11 10 10 9 8 5 4 3 4 11 11 10 9 9 9 9 10 12 17 18 19 10 7 8 7 4 2 2 6 6 6 6 7 7 7 5 6 6 4 3 8 10 9 8 10 8 6 5 4 4 5 7 6 6 6 5 4 5 4 6 5 3 3 5 5 7 7 5
5 3 4 4 6 7 5 3 1 3 5 8 7 6 7 6 5 6 7 10 9 8 8 7 7 6 6 6 8 9 10 12 12 12 12 13 15 11 8 9 7 9 8 10 8 5 6 6 7 7 6 6 5 5 5 7 9 11 13 11 10 8 8 6 7 5 6 5 5 7 8 7 6 5 6 5 3 3 3 3 4 6 6 7 6
7 7 3 3 2 5 5 5 6 7 6 6 7 8 8 9 9 9 10 9 10 10 9 8 6 7 7 4 2 3 9 13 17 14 10 7 3 2 5 5 7 9 9 7 7 7 6 3 4 5 5 6 6 7 8 9 10 11 12 10 7 6 7 7 8 6 3 4 5 6 7 7 7 6 5 4 4 5 6 7 7 7 4 2 4
7 11 13 6 2 4 5 6 6 8 8 8 9 10 10 8 8 6 6 6 9 8 8 6 6 6 5 5 6 4 7 6 6 7 6 4 3 4 4 4 5 6 6 7 6 6 6 6 5 6 6 6 7 6 7 7 7 7 7 7 6 6 7 7 8 7 6 6 6 5 5 5 5 4 4 3 4 7 6 6 6 5 3 2 1
8 8 7 11 6 5 5 6 7 8 8 8 7 6 7 9 10 9 6 6 8 7 7 7 7 5 3 4 4 3 7 7 6 6 6 6 5 5 6 6 6 7 7 6 6 7 8 7 7 7 7 7 7 7 7 7 7 8 8 8 8 7 7 7 7 6 6 5 3 4 4 5 5 5 4 5 4 5 6 5 3 3 5 6 5
9 9 9 9 8 6 4 6 6 6 7 8 7 6 5 8 10 11 9 8 9 9 8 7 6 4 3 5 7 9 9 8 8 7 7 7 7 7 7 7 7 8 8 8 8 8 8 9 8 8 8 7 6 6 6 5 5 6 7 7 6 7 6 6 6 5 4 2 2 2 1 5 5 6 6 4 3 4 4 3 3 4 5 5 3
9 9 10 9 8 9 8 9 9 10 9 10 11 10 9 8 8 8 10 11 10 10 10 9 8 7 11 19 18 18 12 9 9 9 9 9 9 9 8 8 8 8 9 8 8 9 9 10 9 9 9 9 8 8 8 8 7 7 7 7 8 8 8 7 7 7 8 8 7 6 6 5 3 4 5 4 3 3 3 3 3 4 4 3 2
10 10 9 10 9 9 8 10 10 10 9 10 10 9 10 9 7 8 10 10 11 11 11 11 10 10 12 15 17 17 11 10 10 10 10 9 9 9 9 9 9 9 10 10 10 10 10 11 11 10 10 10 9 9 8 8 8 8 8 8 8 8 8 7 7 7 5 5 6 6 7 7 7 6 5 5 5 5 5 5 6 6 4 3 3
11 10 11 11 9 9 9 10 13 12 10 13 14 12 10 8 8 10 12 12 11 11 12 11 11 11 11 12 13 13 11 10 10 10 10 10 10 10 9 9 9 10 10 10 10 10 11 12 12 11 11 10 10 10 10 9 9 9 7 7 7 8 7 7 7 6 5 4 5 6 6 6 6 5 5 4 4 6 6 6 4 4 4 3 2
10 9 10 11 11 11 10 11 13 13 12 11 13 13 11 9 10 11 12 13 13 13 12 12 12 12 12 12 12 12 11 11 11 11 11 10 10 10 9 10 10 11 11 11 10 11 11 11 11 11 12 10 10 10 10 8 8 7 6 6 6 7 6 6 5 4 3 4 5 5 5 5 5 5 5 5 5 5 4 3 3 4 3 2 3
9 9 10 11 11 10 11 11 11 13 13 12 12 13 13 12 11 10 12 12 13 13 12 12 12 12 12 11 11 12 12 12 12 11 11 11 11 10 10 11 11 12 11 11 10 11 11 11 11 11 11 10 10 9 8 8 8 8 7 6 6 5 4 3 4 4 4 5 4 4 4 5 5 5 6 5 5 5 4 4 4 2 2 2 2
10 10 10 11 11 11 11 11 11 11 12 12 12 11 12 13 13 13 12 14 14 13 13 12 12 12 12 12 12 12 11 11 11 11 12 12 11 11 11 11 11 11 11 11 11 11 12 12 12 12 11 9 9 10 9 8 8 7 6 6 5 5 4 4 4 3 3 3 3 3 3 4 5 5 6 6 6 5 5 5 5 4 3 3 3
10 10 11 11 11 10 11 11 12 12 11 11 12 12 13 12 11 11 11 12 13 13 12 12 13 12 12 12 10 10 10 10 11 11 11 11 11 11 11 12 12 11 11 12 12 12 12 12 12 12 11 10 9 9 8 8 8 8 7 7 7 7 8 8 6 6 5 5 5 5 5 4 5 6 6 6 5 5 4 5 4 4 3 4 4
10 10 10 11 11 11 9 10 10 10 9 9 11 12 12 11 11 11 11 12 12 11 11 11 11 11 12 11 11 11 11 11 11 11 11 11 11 11 11 12 12 12 12 12 12 12 12 11 11 11 11 10 9 8 7 8 7 7 7 6 9 13 13 13 8 6 7 6 6 7 7 6 6 5 6 6 6 5 5 4 4 5 5 5 4
10 10 11 11 10 10 9 9 9 9 9 10 10 10 11 11 10 11 12 12 12 11 11 11 11 10 10 11 11 10 10 11 11 11 11 11 11 11 11 12 12 13 13 12 11 11 11 11 12 12 11 11 10 9 8 8 8 8 8 9 15 17 17 15 14 13 8 5 6 5 6 7 7 7 6 6 5 6 6 6 5 5 5 6 5
10 10 10 10 11 10 10 10 10 9 10 10 11 11 11 11 11 11 11 11 11 11 10 11 11 11 11 10 11 11 11 11 10 10 10 11 11 11 12 13 13 12 13 13 12 11 11 11 10 11 10 10 10 10 9 9 8 8 11 17 19 18 18 15 12 13 14 8 7 7 7 7 7 7 6 6 6 6 6 6 6 5 6 5 3
Wind_Direction
187 191 190 196 194 194 194 193 193 192 191 190 192 195 194 191 193 192 188 197 194 187 194 195 191 188 181 183 184 186 186 184 184 181 187 189 192 188 189 190 196 208 202 223 217 207 210 216 230 222 191 170 204 239 198 192 207 185 189 179 189 185 160 180 208 260 293 257 264 274 283 289 293 226 253 268 277 275 262 258 264 268 258 245 244
189 188 190 193 197 196 195 194 193 192 192 192 194 195 197 198 196 193 190 194 193 201 190 194 191 190 188 185 181 185 188 188 184 181 187 189 194 194 197 194 198 203 203 211 225 226 199 208 217 214 202 194 197 211 234 222 200 207 207 190 194 202 196 177 216 222 260 301 299 286 286 290 292 281 281 291 290 292 293 284 261 237 245 244 249
190 187 189 192 198 199 196 195 193 193 194 194 197 196 198 199 197 196 197 193 193 196 197 190 189 189 191 190 185 182 187 190 188 185 190 189 192 198 201 191 195 200 203 209 213 219 223 209 215 208 191 192 200 211 211 231 221 206 223 214 212 214 203 195 191 225 245 262 242 262 258 276 255 281 285 275 275 276 287 290 285 265 225 223 234
189 189 190 194 195 196 197 197 195 194 195 196 198 198 197 200 198 199 199 196 194 195 195 195 184 187 190 189 191 191 187 190 193 193 191 190 191 195 199 199 193 199 202 205 207 209 217 221 228 210 198 190 202 207 217 222 236 215 208 227 220 226 216 198 204 210 232 255 277 249 266 270 273 264 270 274 278 283 273 282 283 276 268 252 241
191 192 192 193 194 196 198 197 197 197 197 196 198 197 198 199 199 200 198 200 198 195 195 195 190 186 190 189 190 194 192 192 193 196 193 191 191 192 195 200 202 198 202 203 204 203 209 215 222 214 201 202 212 207 206 211 223 236 246 220 210 223 227 215 208 201 220 241 266 260 254 261 258 269 254 274 283 273 274 267 273 271 271 260 251
191 192 192 193 194 197 198 198 199 199 198 198 198 197 197 198 198 200 200 200 198 197 195 194 194 192 190 190 190 193 194 193 194 195 193 190 191 192 195 199 203 203 200 201 204 203 210 214 214 212 208 204 216 214 204 204 205 212 227 245 239 230 232 240 232 219 209 232 245 282 280 268 287 267 259 256 269 285 283 271 282 280 257 280 276
190 191 191 193 194 197 198 200 199 199 199 200 198 197 198 197 197 199 200 201 199 198 197 194 194 193 194 192 193 193 195 195 194 194 193 190 191 192 195 200 203 202 207 204 204 203 208 213 215 208 210 212 215 214 209 209 205 212 210 216 221 224 234 245 249 253 245 249 255 248 266 264 246 281 273 242 258 257 280 300 298 315 324 264 301
192 191 191 192 196 198 200 199 199 198 198 199 199 198 198 198 198 198 197 201 202 201 197 195 192 193 195 196 196 192 192 195 194 195 196 193 189 194 194 196 202 205 204 207 207 208 210 213 215 213 212 212 210 215 208 213 207 211 212 203 210 214 225 230 238 241 251 254 248 259 257 269 271 254 281 305 301 297 268 265 284 283 321 305 258
197 194 193 194 197 199 198 197 198 199 197 197 199 199 198 199 198 196 196 200 203 203 199 194 191 193 195 196 197 195 193 195 194 194 196 198 193 193 194 195 198 203 207 206 206 207 211 215 219 219 213 215 212 210 209 207 201 211 219 206 210 206 216 221 221 230 241 247 265 260 264 275 269 281 287 277 256 263 268 230 230 162 248 283 299
201 199 199 198 197 195 195 195 197 197 198 197 198 198 199 198 197 197 196 199 201 201 202 195 193 192 192 194 195 196 197 198 198 195 194 196 198 197 195 197 197 198 202 208 210 209 210 212 217 218 220 220 218 218 218 215 211 206 206 202 210 211 213 215 218 220 227 238 250 255 265 265 270 262 266 269 262 259 326 53 6 292 316 316 313
203 207 206 199 193 191 191 195 195 198 199 199 198 198 198 197 198 197 196 196 198 199 201 199 195 193 192 191 193 196 198 200 196 193 196 197 196 199 195 200 199 197 197 200 208 211 216 217 221 222 220 223 223 221 222 222 224 222 217 208 201 200 210 214 218 206 212 227 235 241 246 261 263 260 259 273 277 260 164 147 270 313 332 348 314
202 208 212 201 193 192 194 192 197 200 200 201 200 199 197 197 198 197 196 195 196 195 199 203 197 192 194 192 193 195 198 198 192 192 194 196 196 198 197 196 201 201 198 201 206 208 211 215 219 222 225 221 222 223 224 225 224 226 227 226 218 208 201 198 208 209 207 222 235 238 241 247 262 259 261 265 275 289 133 132 198 303 310 313 267
201 207 211 207 199 196 192 194 198 201 202 202 200 200 200 198 197 196 197 194 192 195 198 199 199 194 192 193 194 194 197 194 188 190 193 195 198 199 202 198 197 203 203 204 204 206 208 211 216 220 227 229 215 210 214 227 232 231 229 230 232 227 226 226 216 205 184 197 222 243 233 246 265 263 253 257 201 295 310 323 258 211 204 245 257
16 1 344 312 235 198 196 194 198 201 201 201 200 201 202 203 199 197 194 191 192 195 196 198 198 193 192 192 194 194 197 190 186 189 192 196 199 198 207 205 202 201 204 206 206 206 207 208 212 221 222 227 223 207 205 215 221 229 235 235 234 242 242 237 238 238 219 208 207 235 249 222 249 259 264 264 278 275 312 287 221 207 217 242 248
184 191 175 239 288 245 198 198 199 198 198 199 200 203 204 205 203 199 195 192 192 194 196 197 198 195 190 191 192 195 198 185 184 188 192 195 198 196 207 206 207 207 206 206 208 209 208 209 214 221 223 226 222 210 209 211 213 220 223 226 228 232 233 239 236 232 223 211 217 232 246 241 246 254 261 264 254 259 226 201 180 201 232 276 295
199 194 195 199 205 222 210 197 198 195 195 197 201 204 205 206 204 200 197 196 195 194 196 196 196 198 191 187 193 196 196 180 185 187 192 196 193 194 202 204 207 210 211 208 208 210 210 211 215 219 223 225 229 218 210 211 215 218 220 228 232 233 235 234 233 234 232 224 214 223 231 233 234 247 247 189 120 121 107 91 89 102 336 322 313
204 203 207 205 202 207 205 199 195 194 193 196 202 204 204 206 206 201 199 197 192 193 195 195 194 196 197 188 189 197 198 186 186 189 192 194 184 195 198 203 210 213 215 210 208 209 211 213 214 219 220 223 223 218 218 203 213 218 222 228 230 232 241 241 234 237 240 239 235 230 229 230 240 212 146 161 163 149 109 107 245 188 218 278 271
205 208 216 220 215 205 201 197 194 193 193 198 201 203 204 204 205 201 201 198 197 195 192 195 194 196 197 199 191 187 198 188 189 190 191 187 182 191 195 199 210 215 222 216 205 205 211 217 217 218 217 221 215 210 213 204 216 216 217 223 228 234 244 239 242 239 238 241 242 241 242 248 221 171 161 168 168 159 147 209 217 160 228 220 239
206 212 216 212 209 214 206 200 195 193 195 199 199 200 201 201 202 201 206 203 201 193 190 193 195 197 198 200 200 197 197 186 192 191 190 185 186 192 191 198 205 214 216 222 220 223 226 225 225 221 220 221 209 206 207 200 216 220 219 220 230 235 237 224 232 247 249 241 240 233 238 230 216 190 190 184 181 191 193 210 178 179 221 211 205
212 216 218 217 214 213 208 202 199 197 198 196 196 199 197 197 199 202 205 205 201 195 192 194 195 198 196 199 199 202 205 188 187 196 193 187 188 188 192 192 205 211 214 213 216 225 230 234 233 234 227 219 207 205 206 201 209 219 215 222 232 240 236 227 235 237 258 259 259 220 228 223 185 170 161 171 191 201 202 203 190 191 200 161 181
207 212 211 211 214 215 206 201 200 200 196 193 193 193 193 197 197 199 203 203 202 199 196 196 197 198 196 197 197 199 204 196 185 188 189 188 194 192 188 197 203 206 208 210 211 214 222 228 233 231 227 223 216 209 204 205 209 213 213 222 224 236 230 233 243 249 258 264 262 194 152 175 165 157 166 174 187 199 201 206 202 186 146 148 172
202 207 208 210 210 208 205 202 200 197 193 188 187 194 195 195 196 198 200 201 202 202 198 195 196 196 197 195 197 197 198 198 173 190 186 190 192 198 193 200 200 201 205 212 210 215 219 221 223 225 224 225 222 219 215 209 212 213 223 222 229 226 220 227 233 236 256 278 289 165 129 155 228 190 239 214 186 187 181 194 193 185 175 181 165
200 197 200 203 206 204 201 198 195 195 193 191 190 192 189 194 196 195 198 201 203 204 200 196 193 193 194 197 197 198 194 200 177 181 193 190 194 199 202 199 201 199 203 208 209 215 219 219 223 222 219 221 223 222 219 219 214 222 228 227 220 210 213 212 212 224 253 276 293 295 147 135 102 324 185 272 296 271 162 156 164 197 233 202 190
205 204 203 202 202 198 195 194 193 194 191 187 189 188 189 193 194 195 196 198 201 203 203 199 195 193 194 196 197 198 196 196 189 183 188 195 195 198 206 208 191 202 206 213 211 215 214 215 220 218 213 215 217 219 220 214 215 224 225 224 206 198 202 205 217 227 254 284 289 290 297 116 135 151 226 229 235 311 105 120 161 236 253 205 200
210 209 206 202 202 200 192 191 192 192 189 184 185 188 190 189 194 196 195 199 201 203 203 200 199 197 195 196 197 198 197 198 195 193 188 192 197 200 205 208 207 199 205 218 213 212 212 211 216 216 214 213 215 217 220 219 220 223 220 213 195 189 196 203 211 223 252 257 268 285 294 355 181 200 145 145 141 102 108 123 188 212 211 179 172
213 211 209 201 197 191 188 190 190 190 186 185 188 188 188 190 195 194 196 200 201 201 202 200 202 200 199 196 196 196 196 197 195 190 196 193 198 202 204 208 211 207 207 214 214 199 200 209 214 226 231 227 218 216 219 221 222 223 224 211 206 200 192 194 220 217 241 246 257 272 287 338 43 62 103 117 116 120 153 194 203 40 35 30 31
207 206 205 201 193 188 186 188 188 189 187 186 188 187 188 190 193 194 197 201 201 202 201 201 203 202 203 198 196 195 195 198 193 186 186 191 202 206 209 216 216 213 227 243 180 167 152 159 170 174 165 191 203 208 216 216 205 210 211 205 200 202 199 198 207 219 230 243 250 259 309 89 99 68 61 87 84 31 11 30 49 37 43 34 42
206 201 197 192 189 188 188 185 182 185 186 185 185 188 192 193 196 199 199 198 199 201 202 201 203 202 202 199 195 196 198 199 194 187 189 190 197 195 201 203 197 203 209 214 203 168 156 126 121 124 118 126 169 143 173 176 198 190 196 193 197 196 203 212 207 191 211 192 197 112 76 88 82 80 56 43 44 18 9 25 90 55 53 64 49
208 203 197 190 187 186 186 183 185 183 183 183 187 184 191 198 201 208 206 202 204 204 203 204 204 203 200 199 198 199 202 203 205 188 188 187 185 188 188 196 198 201 208 200 177 149 141 154 154 156 160 161 161 174 181 179 184 188 183 179 181 174 165 160 190 202 202 197 178 147 162 142 142 130 136 154 182 186 172 165 153 100 64 78 90
207 201 195 189 186 184 184 182 182 180 180 183 167 90 31 51 52 198 205 203 208 209 204 210 205 200 201 206 201 198 201 208 192 177 184 183 186 184 188 187 191 195 200 192 187 186 179 183 195 192 192 187 188 190 188 185 169 174 188 180 169 165 174 185 194 204 164 123 143 161 173 164 137 142 145 160 205 190 193 166 148 120 101 98 26
199 201 190 190 185 181 181 179 179 180 179 180 162 150 127 65 48 44 5 262 202 202 206 211 212 210 207 207 212 217 219 197 168 177 177 180 187 190 190 191 190 197 183 156 192 201 202 204 209 211 200 195 198 200 191 180 180 172 183 180 183 176 178 189 200 179 152 154 160 166 139 110 134 156 166 161 167 182 174 122 130 124 151 172 179
226 196 192 191 183 178 177 175 175 176 177 166 154 160 167 165 149 28 34 22 342 197 194 210 219 210 206 205 190 218 224 196 180 173 179 183 188 193 194 192 192 188 176 165 178 196 205 207 212 215 208 206 210 202 195 193 187 184 185 192 194 185 168 190 192 151 127 115 115 95 121 156 160 160 155 158 174 178 171 193 159 160 166 183 197
50 18 37 73 75 84 76 59 31 334 186 156 168 171 177 178 174 157 39 41 54 66 72 56 61 41 208 221 195 184 187 196 195 183 183 186 187 191 191 186 186 172 134 158 191 195 204 208 210 212 208 214 206 203 205 205 205 197 197 200 175 150 171 192 77 106 118 131 141 149 152 162 166 164 175 138 163 189 189 192 191 173 177 147 139
108 118 113 142 149 152 150 146 148 158 265 319 298 201 179 178 173 159 143 139 88 61 57 50 39 65 61 53 173 203 192 188 186 187 184 182 185 185 168 149 131 158 170 182 186 198 199 206 211 211 212 212 211 204 206 209 211 209 192 159 136 145 130 138 144 130 140 145 153 152 169 189 182 163 175 186 204 180 181 191 170 169 147 143 175
333 119 138 140 140 180 177 164 168 174 171 169 181 238 205 178 168 169 175 172 172 160 149 64 34 36 64 50 46 86 120 149 180 180 176 173 154 135 119 119 131 189 240 229 191 193 192 201 210 212 206 202 205 206 212 213 207 181 126 100 103 93 122 148 149 143 137 147 151 167 172 173 167 173 176 192 168 156 180 167 171 168 149 175 192
303 341 37 77 54 20 1 223 184 172 171 174 171 166 257 211 173 185 174 166 160 146 120 82 93 80 78 63 64 76 85 95 117 138 154 146 147 140 145 169 171 175 124 67 192 202 206 205 202 209 205 200 183 185 188 156 88 79 95 100 124 166 171 161 147 150 147 128 147 136 139 165 171 159 164 153 166 164 168 162 160 170 168 191 192
343 165 183 202 165 165 166 142 147 152 146 135 131 153 166 215 233 177 168 171 162 154 134 144 148 114 81 70 72 69 82 90 90 103 125 149 160 166 170 164 140 111 141 195 202 188 197 202 196 189 172 151 143 131 102 97 109 116 115 144 176 158 162 163 141 127 128 127 132 150 164 178 174 162 146 159 193 176 183 187 173 173 182 199 193
20 358 265 206 142 128 132 146 147 146 149 144 145 162 186 173 173 194 198 179 153 146 150 161 153 139 133 103 93 123 108 104 95 84 94 121 183 196 132 136 143 154 173 194 195 197 176 135 117 124 115 120 120 116 115 115 126 134 145 147 137 147 117 114 113 113 111 132 148 157 157 156 159 156 125 132 186 196 185 179 166 165 192 186 196
8 18 29 66 134 143 140 143 158 163 159 163 159 161 177 165 153 196 194 165 141 142 141 129 110 105 110 134 125 175 127 107 105 120 118 103 62 58 72 90 117 124 134 138 139 127 116 109 94 94 104 108 110 103 105 108 103 93 95 108 124 124 127 124 128 138 142 145 149 149 137 147 143 135 153 163 177 172 173 150 151 147 149 117 108
24 6 26 55 74 70 151 162 154 144 146 144 134 131 136 135 143 140 164 148 125 111 98 98 95 90 114 128 123 129 101 100 96 102 96 82 75 59 67 86 91 100 108 103 99 105 105 94 88 82 80 78 82 90 94 108 115 123 129 129 127 124 126 131 134 130 132 134 133 137 135 143 157 154 140 136 139 142 132 127 144 149 154 164 176
36 29 24 18 36 48 70 107 93 95 110 118 117 108 131 138 130 125 129 118 109 100 92 87 82 59 32 89 86 81 91 90 91 81 78 84 75 71 70 73 86 86 84 87 87 82 81 86 81 79 70 71 73 78 89 94 102 107 109 111 114 118 118 102 91 88 87 66 98 96 177 170 143 121 123 141 149 126 128 144 176 175 170 167 182
39 43 31 19 29 50 53 64 66 79 88 96 99 102 96 96 102 110 119 116 108 104 98 88 80 73 74 81 82 84 84 83 84 85 79 74 74 72 72 71 67 75 76 74 74 76 73 70 67 68 71 63 62 58 56 57 66 80 84 81 82 76 70 62 62 66 66 70 64 58 55 61 74 70 59 56 58 68 78 78 68 64 55 39 5
37 47 48 41 36 46 58 78 79 75 73 78 85 81 82 86 92 98 93 91 95 99 98 93 87 80 70 63 74 76 78 77 79 78 76 72 71 71 68 66 65 66 71 71 70 75 78 76 69 62 60 57 54 53 52 50 54 59 66 74 75 74 66 59 52 48 46 60 73 68 68 69 67 73 71 61 58 66 72 69 55 44 45 55 51
36 34 46 53 45 39 34 63 74 72 70 80 81 71 67 75 83 87 88 86 82 81 85 86 87 81 77 62 63 69 72 72 71 71 70 70 68 66 63 62 65 66 65 66 66 71 76 77 75 70 64 59 54 51 53 47 47 55 52 63 69 66 62 55 51 41 33 49 62 65 66 69 70 73 68 60 61 65 60 59 64 59 52 41 24
37 33 41 51 49 49 48 54 65 67 63 68 72 72 67 64 71 77 82 84 81 78 75 75 75 77 75 70 70 72 70 68 66 65 64 65 66 63 62 60 59 60 59 58 56 61 67 70 73 72 69 63 59 59 53 41 39 43 42 46 55 55 46 39 30 17 14 47 59 66 66 67 62 51 45 51 67 77 83 91 92 72 51 27 40
29 36 46 56 53 52 52 53 60 71 71 61 68 79 79 68 60 65 76 80 80 79 76 72 73 73 73 74 72 71 70 72 69 67 66 63 63 62 62 64 65 63 62 60 59 60 63 66 66 68 66 61 57 57 54 47 47 44 38 39 42 44 20 358 16 18 25 36 47 47 48 54 46 44 58 59 67 70 63 55 61 64 78 56 38
27 38 38 45 49 51 51 49 57 63 71 77 76 73 76 79 79 70 64 68 77 82 81 80 76 74 74 73 73 72 72 70 71 69 67 65 62 62 63 65 66 66 63 64 62 62 62 60 62 64 61 54 53 52 49 45 44 41 37 34 27 18 9 358 20 8 4 6 20 30 39 39 42 47 43 44 46 45 48 39 29 14 7 4 352
29 34 36 41 45 46 51 57 54 52 62 67 74 76 79 79 77 79 83 76 72 74 76 78 78 77 75 72 69 70 72 74 74 73 72 70 68 67 68 68 67 68 66 63 61 61 62 64 65 63 60 55 50 49 48 47 46 39 34 29 22 13 2 9 20 15 3 6 11 14 4 15 43 45 41 48 43 40 53 42 32 16 359 349 331
32 38 40 39 40 44 43 48 58 59 60 64 69 74 76 77 81 82 76 78 77 74 75 78 78 79 80 81 81 79 79 79 79 77 75 73 72 70 72 75 75 73 70 69 65 64 62 61 61 61 59 54 48 45 41 43 35 37 33 30 15 18 22 24 26 8 359 5 20 18 17 29 32 31 38 38 36 34 38 26 16 358 338 326 315
39 40 46 46 43 42 39 47 53 60 62 68 70 70 75 78 70 70 74 75 77 77 77 77 79 79 81 80 80 80 79 81 81 82 81 80 79 80 77 72 72 70 70 68 65 61 61 58 56 55 52 50 45 41 37 36 31 28 26 18 22 26 23 22 26 19 13 16 15 26 34 46 48 51 42 38 32 27 20 5 354 343 331 316 304
45 46 46 49 51 47 47 49 48 50 54 62 65 65 61 61 68 69 65 68 75 78 81 83 83 82 82 83 85 85 83 82 80 80 80 83 84 80 78 77 73 70 69 66 61 57 56 56 53 50 47 45 42 39 36 34 33 31 26 27 28 26 24 23 19 12 20 21 27 31 46 50 55 48 39 28 23 20 5 355 349 337 323 320 348